TIME,DELAY(SENSOR),PRES,T(CTD),SAL,OXYGEN,RAWTEMP,T(OPTODE),TCPHASE,FLUOR,BETA(BETA700),BETA(BETA412),BETA(BETA440),CDOM,C(CSC),ED(ED412.40),ED(ED444.00),ED(ED489.70),ED(ED554.30),LU(LU411.80),LU(LU443.40),LU(LU489.60),LU(LU554.10),COMP,TILTX,TILTX(TILTY),CHECK
1353965178,5808,496.9599914550781000,6.3621001243591310,34.1302986145019500,73.8546371459961000,607.6296997070312000,6.3375210762023930,49.7538108825683600,52,103,88,80,79,15110,2147749229,2147422829,2148001600,2147878061,2147631835,2147076141,2148243510,2147197888,3098,4,13,30707
1353965299,5809,486.6600036621094000,6.4977998733520510,34.1175994873046900,80.5578765869140600,603.2769165039062000,6.4783592224121090,48.8915100097656250,51,104,89,80,79,15112,2147745280,2147421421,2148004937,2147874788,2147630628,2147076425,2148245961,2147198418,275,4,13,43739
1353965444,5812,475.7399902343750000,6.6210999488830570,34.1081008911132800,87.5645370483398400,599.0988159179688000,6.6133770942687990,48.0314712524414060,52,104,86,80,78,15110,2147744365,2147421156,2148004141,2147876032,2147630966,2147081060,2148244297,2147201097,88,5,13,29378
1353965598,5806,465.2699890136719000,6.8573999404907230,34.0993995666503900,95.0855865478515600,592.2855834960938000,6.8331890106201170,47.0979309082031250,52,105,86,80,77,15111,2147743213,2147423670,2148003008,2147875117,2147627410,2147078829,2148246390,2147196754,732,4,13,42340
1353965789,5808,451.2600097656250000,7.2135000228881840,34.0970993041992200,103.7639999389648400,580.9337768554688000,7.1984691619873050,46.0032310485839840,51,105,90,80,78,15109,2147745051,2147422912,2148003739,2147872182,2147625270,2147082020,2148243721,2147199707,1512,4,13,58492
1353965910,5808,439.4400024414062500,7.3589000701904300,34.0975990295410160,110.3897018432617200,576.1668090820312000,7.3515148162841800,45.2545814514160160,51,104,88,81,77,15108,2147744173,2147424036,2148003401,2147876333,2147625728,2147080612,2148239433,2147201088,2286,4,13,45668
1353966022,5811,427.8999938964844000,7.5840997695922850,34.0853996276855500,118.4345016479492200,569.4494018554688000,7.5668330192565920,44.3574600219726560,51,104,86,80,78,15111,2147744201,2147421924,2148002934,2147870774,2147623963,2147086226,2148243456,2147203227,2218,4,13,63396
1353966121,5810,417.2300109863281000,7.7767000198364260,34.0918006896972660,123.7387008666992200,563.3278198242188000,7.7627110481262210,43.7534408569335940,51,106,88,81,77,15111,2147740690,2147422345,2148004452,2147871414,2147621266,2147089874,2148238262,2147201334,2196,5,13,26686
1353966231,5811,405.3500061035156000,7.9532999992370605,34.0934982299804700,128.5390930175781200,557.4268798828125000,7.9512228965759280,43.2125892639160160,51,105,89,81,76,15109,2147742043,2147422217,2148000054,2147874742,2147620480,2147088448,2148237513,2147197211,2981,4,13,8281
1353966363,5808,393.0000000000000000,8.3322000503540040,34.0945014953613300,134.9389038085937500,546.0629882812500000,8.3134326934814450,42.4457206726074200,50,105,90,81,76,15110,2147742555,2147421312,2148000987,2147875968,2147623725,2147087131,2148233252,2147199844,2441,4,13,40568
1353966536,5809,382.2999877929687500,8.5000000000000000,34.0952987670898440,146.5010986328125000,540.8720703125000000,8.4785327911376950,41.3680305480957000,50,103,92,79,75,15110,2147741156,2147424502,2148002157,2147873462,2147618651,2147088987,2148231369,2147196544,2528,4,13,49880
1353966723,5808,369.9899902343750000,8.7986001968383790,34.0909996032714840,154.8383026123047000,531.0313720703125000,8.7909374237060550,40.5250396728515600,50,103,90,81,74,15113,2147737819,2147420251,2148001654,2147871936,2147619876,2147094555,2148234733,2147202468,1467,4,13,13373
1353966844,5808,359.9200134277344000,9.2140998840332030,34.0924987792968750,165.0915985107422000,517.8925170898438000,9.2068748474121100,39.5079002380371100,50,104,87,80,74,15109,2147738715,2147422418,2148002861,2147874614,2147616512,2147095360,2148226203,2147205184,797,4,13,34158
1353966976,5809,348.3599853515625000,9.4160003662109380,34.1002998352050800,173.1186981201172000,511.8385925292969000,9.3980903625488280,38.8160705566406250,50,107,87,79,73,15108,2147738185,2147423488,2148004425,2147875666,2147615954,2147095195,2148222217,2147202660,429,4,13,35591
1353967089,5806,337.2099914550781000,9.5735998153686520,34.1024017333984400,175.5877075195312500,505.8378906250000000,9.5873613357543950,38.5367012023925800,49,106,85,80,72,15105,2147738267,2147420416,2148001408,2147878098,2147615040,2147098377,2148227428,2147204105,3004,3,13,27647
1353967210,5806,326.7600097656250000,9.9654998779296880,34.1101989746093750,182.4481964111328000,494.2206115722656000,9.9530677795410160,37.8631782531738300,49,108,92,79,71,15105,2147733312,2147422317,2148005101,2147876928,2147612525,2147107410,2148228077,2147202084,1909,3,13,55587
1353967366,5807,315.8399963378906000,10.2919998168945310,34.1166992187500000,191.5780029296875000,483.4136047363281000,10.2924404144287110,37.0760307312011700,49,106,87,82,71,15107,2147734857,2147422272,2148007716,2147876388,2147608850,2147107501,2148225709,2147203437,308,4,13,37601
1353967531,5810,304.7699890136719000,11.0865001678466800,34.1240997314453100,201.1399993896484400,458.4252014160156000,11.0742797851562500,36.0601310729980500,49,106,91,80,70,15104,2147735387,2147424182,2148008484,2147873993,2147608731,2147109549,2148222820,2147203300,2840,4,13,57841
1353967665,5809,292.3999938964844000,11.7785997390747070,34.1412010192871100,210.4499969482422000,435.8700866699219000,11.7768201828002930,35.1413993835449200,48,107,88,80,69,15107,2147734400,2147421394,2148013430,2147875117,2147605705,2147112658,2148222948,2147206966,470,3,13,34790
1353967764,5808,280.5899963378906000,12.2594003677368160,34.1635017395019500,210.9962005615234400,420.2236938476562500,12.2625703811645500,34.8604011535644500,49,104,86,80,69,15107,2147729033,2147424512,2148017316,2147874934,2147602962,2147119862,2148225819,2147206153,567,3,13,15967
1353967852,5806,269.8299865722656000,12.7190999984741210,34.1887016296386700,210.0736999511718800,405.4883117675781000,12.7189302444458000,34.6820182800293000,48,104,86,80,69,15106,2147727424,2147429458,2148022646,2147874587,2147600045,2147125056,2148221952,2147204781,251,4,14,34563
1353967970,5812,257.8900146484375000,13.0214996337890620,34.2070999145507800,211.5234985351562500,395.4023132324219000,13.0307302474975590,34.4423599243164060,48,105,88,80,69,15103,2147723556,2147434953,2148038473,2147875922,2147597641,2147131574,2148226331,2147206637,2849,3,14,4638
1353968135,5808,247.2100067138672000,13.8452997207641600,34.2738990783691400,211.5901031494140600,368.7854003906250000,13.8515396118164060,34.0297317504882800,48,104,86,79,69,15104,2147724854,2147440877,2148054848,2147871021,2147592850,2147138550,2148231424,2147210066,1274,3,14,7750
1353968331,5808,236.1199951171875000,14.7427997589111330,34.3540992736816400,216.7891998291015600,340.4819946289062500,14.7215995788574220,33.3148307800293000,48,104,86,80,68,15097,2147719451,2147449005,2148077997,2147871670,2147588041,2147153618,2148239497,2147209371,2028,4,13,34216
1353968485,5806,224.6600036621093800,15.6106004714965820,34.4607009887695300,217.1824951171875000,311.7308959960937500,15.6030702590942380,32.8712997436523440,50,104,88,80,67,15098,2147720237,2147466358,2148114413,2147871616,2147586980,2147163053,2148246756,2147210724,2881,3,14,11097
1353968618,5803,212.3099975585937500,16.5578002929687500,34.5811996459960940,216.8186950683593800,279.0389099121094000,16.6032791137695300,32.4206008911132800,50,104,89,80,65,15096,2147721755,2147486784,2148169508,2147873179,2147582089,2147182866,2148272384,2147216493,2040,4,14,7753
1353968728,5808,201.7500000000000000,17.3638000488281250,34.6978988647460940,217.2572937011718800,254.0388031005859400,17.3671798706054700,32.0441589355468750,50,104,91,81,64,15097,2147727094,2147531995,2148277056,2147872228,2147581595,2147219318,2148321654,2147220333,2436,3,14,18293
1353968783,5805,196.9499969482422000,17.7758998870849600,34.7555007934570300,217.0908966064453000,239.8697967529297000,17.7999305725097660,31.8552093505859380,50,104,88,81,65,15094,2147729225,2147554468,2148328228,2147874752,2147580416,2147234733,2148344777,2147218276,2543,3,14,38252
1353968838,5807,192.4299926757812500,18.1756992340087900,34.8000984191894500,213.6058044433593800,225.8905029296875000,18.2268295288085940,31.8489894866943360,52,105,86,80,64,15087,2147734930,2147579812,2148367524,2147873316,2147581046,2147252288,2148358427,2147220105,2368,3,15,59519
1353968912,5807,186.7599945068359400,18.5941009521484380,34.8714981079101560,214.8679962158203000,214.0989990234375000,18.5869407653808600,31.6179199218750000,53,104,88,80,64,15086,2147742226,2147610971,2148426971,2147872630,2147580690,2147273819,2148384932,2147224987,2550,3,15,25097
1353968967,5809,182.6399993896484400,18.7352008819580080,34.8926010131835940,216.0077056884765600,208.9017028808593800,18.7456703186035160,31.4855709075927730,54,105,88,80,65,15083,2147747675,2147630619,2148467090,2147872886,2147583268,2147286656,2148402596,2147227648,3012,3,15,53348
1353969022,5809,178.3899993896484400,18.9741992950439450,34.9297981262207000,217.1773071289062500,201.5023956298828000,18.9716892242431640,31.3228702545166000,53,106,87,80,64,15083,2147752832,2147651218,2148498989,2147871286,2147586916,2147304704,2148420160,2147229467,42,3,15,24871
1353969077,5806,174.0800018310547000,19.3062000274658200,34.9728012084960940,217.1739044189453000,190.1134033203125000,19.3196506500244140,31.1682701110839840,56,106,86,81,65,15082,2147768118,2147696740,2148584164,2147873152,2147587721,2147332032,2148458468,2147232448,502,3,15,3785
1353969132,5809,169.8699951171875000,19.5641002655029300,35.0043983459472660,217.0366973876953000,181.1605987548828000,19.5932693481445300,31.0547599792480470,59,108,86,80,63,15076,2147789284,2147776960,2148754404,2147873956,2147599771,2147377408,2148540644,2147237092,832,3,14,37716
1353969187,5808,165.8000030517578000,19.8920001983642580,35.0466995239257800,217.8908996582031200,172.1063995361328000,19.8700904846191400,30.8881893157959000,60,110,86,81,64,15073,2147817060,2147869860,2148943990,2147875830,2147611849,2147439268,2148634587,2147246317,405,3,14,53321
1353969265,5806,160.8699951171875000,19.9829998016357420,35.0600013732910160,219.6016998291015600,168.2480926513672000,19.9880905151367200,30.7475605010986330,62,108,89,81,64,15072,2147848539,2147944877,2149070774,2147874157,2147620891,2147483474,2148692013,2147250806,920,3,15,32573
1353969331,5807,157.3800048828125000,20.1487007141113280,35.0808982849121100,220.0173034667968800,163.4253997802734400,20.1356201171875000,30.6619796752929700,66,109,90,83,64,15065,2147868105,2147977252,2149108544,2147877321,2147629412,2147497600,2148703003,2147252800,888,2,15,60239
1353969408,5806,153.6900024414062500,20.3199996948242200,35.1013984680175800,220.6582031250000000,158.4024963378906200,20.2893104553222660,30.5624198913574220,67,110,90,81,63,15066,2147899437,2148035401,2149192237,2147876397,2147642770,2147531913,2148740809,2147253805,668,3,15,17271
1353969496,5812,149.8500061035156200,20.5692996978759770,35.1301002502441400,221.8585968017578000,149.7082977294922000,20.5554409027099600,30.3856906890869140,74,111,89,82,63,15060,2147955053,2148156736,2149395337,2147877385,2147666925,2147611840,2148834011,2147265920,1658,2,15,22542
1353969586,5807,145.7400054931640600,20.6459999084472660,35.1388015747070300,223.0601043701172000,147.0299987792968800,20.6374607086181640,30.2897701263427730,74,113,89,81,62,15057,2148016000,2148275437,2149590976,2147879296,2147692571,2147666267,2148910939,2147271058,1338,3,15,25253
1353969674,5809,141.1000061035156200,20.8304996490478500,35.1506996154785160,223.6054992675781200,141.0184020996093800,20.8216094970703120,30.1833591461181640,78,112,90,82,63,15055,2148099410,2148439506,2149858285,2147885412,2147726976,2147756480,2149044086,2147277440,1578,2,15,36472
1353969740,5810,137.6000061035156200,20.8873996734619140,35.1577987670898440,224.5592041015625000,139.0626068115234400,20.8815307617187500,30.1099205017089840,81,114,89,83,63,15048,2148214070,2148681152,2150281444,2147887579,2147772918,2147887881,2149233206,2147292946,989,2,15,21604
1353969817,5811,133.6699981689453000,20.9908008575439450,35.1651992797851560,225.3314056396484400,135.5637969970703000,20.9887599945068360,30.0257492065429700,85,115,88,80,62,15044,2148302573,2148816777,2150482322,2147890340,2147807003,2147954157,2149320448,2147301732,26,2,15,52935
1353969907,5808,129.4400024414062500,21.1557006835937500,35.1752014160156250,226.2290039062500000,130.5104064941406200,21.1436901092529300,29.9153900146484380,94,115,90,82,62,15041,2148486884,2149150052,2151024036,2147894966,2147885577,2148134345,2149559670,2147323456,3040,2,15,64384
1353970006,5809,125.7699966430664000,21.2280998229980470,35.1808013916015600,227.1598968505859400,127.9046020507812500,21.2236003875732420,29.8355407714843750,94,116,89,82,63,15034,2148800256,2149760493,2152061540,2147909083,2148011812,2148443574,2149997878,2147358793,2104,2,15,40807
1353970138,5810,122.4499969482421900,21.3780994415283200,35.1810989379882800,228.3731994628906200,123.2872009277343800,21.3652496337890620,29.7164897918701170,96,117,87,83,62,15026,2149077778,2150176768,2152725083,2147923254,2148119369,2148642002,2150265920,2147378523,1799,2,16,10484
1353970289,5810,118.0599975585937500,21.4192008972167970,35.1837997436523440,229.4096069335937500,121.4481964111328100,21.4216804504394530,29.6420993804931640,101,118,90,84,64,15019,2149561581,2150838162,2153662262,2147937472,2148314550,2148938477,2150632877,2147412973,1654,2,16,22318
1353970366,5808,114.8099975585937500,21.4755001068115230,35.1829986572265600,230.0195007324218800,119.9355010986328100,21.4680995941162100,29.5932598114013670,100,115,92,83,61,15013,2150040923,2151480438,2154530276,2147955995,2148499008,2149236105,2150982921,2147444388,1610,2,15,44071
1353970454,5814,110.8099975585937500,21.5468006134033200,35.1827011108398440,230.4618988037109400,117.6116027832031200,21.5394306182861330,29.5419197082519530,105,119,91,82,62,15013,2150677622,2152237933,2155519579,2147981851,2148753124,2149606729,2151400502,2147483611,1799,2,16,38301
1353970543,5807,105.9300003051757800,21.7164993286132800,35.1855010986328100,231.5798950195312500,111.8529968261718800,21.7162704467773440,29.4140892028808600,114,121,92,83,63,15001,2151857142,2153755273,2157580736,2148029595,2149204662,2150243465,2152151515,2147556937,1859,2,16,52631
1353970609,5809,101.8600006103515600,21.9955005645751950,35.1803016662597660,232.6495056152343800,102.3212966918945300,22.0091800689697270,29.2411308288574220,123,122,91,82,63,14989,2153213961,2155485092,2159870811,2148089152,2149703058,2150940278,2152939090,2147637668,1386,2,15,60320
1353970675,5810,98.5199966430664000,22.2434005737304700,35.1739006042480500,234.8730926513672000,95.1751632690429700,22.2289791107177730,29.0452194213867200,138,124,88,84,62,14973,2154468946,2156940169,2161572379,2148136347,2150171355,2151527981,2153581705,2147706066,1363,2,15,5969
1353970730,5806,96.3199996948242200,22.4388999938964840,35.1778984069824200,236.2129058837890600,89.2957534790039000,22.4099502563476560,28.9081592559814450,143,124,91,83,62,14966,2155510610,2158176192,2163011474,2148178112,2150537408,2151947446,2154024484,2147758738,1806,2,16,52358
1353970785,5809,94.6200027465820300,22.5813999176025400,35.1757011413574200,238.0876007080078000,84.4551696777343800,22.5590305328369140,28.7604999542236330,149,125,90,83,60,14954,2156548086,2159362569,2164300827,2148227922,2150892818,2152370605,2154508836,2147813558,2051,2,15,60025
1353970842,5807,93.0899963378906200,22.6674995422363280,35.1767005920410160,239.2377014160156200,81.5636520385742200,22.6481304168701170,28.6714401245117200,156,123,92,83,60,14953,2157734134,2160904530,2166188672,2148277723,2151299940,2152881481,2155063168,2147876644,1838,2,16,9860
1353970908,5808,91.2600021362304700,22.8700008392334000,35.1755981445312500,240.1217041015625000,76.1159667968750000,22.8160800933837900,28.5626506805419920,154,123,88,83,61,14940,2157024429,2159515593,2163735835,2148233755,2151070107,2152368292,2154348077,2147810212,2150,2,16,55692
1353970996,5808,89.4300003051757800,22.9932003021240230,35.1833000183105500,241.3849029541015600,70.9420013427734400,22.9757003784179700,28.4407997131347660,152,126,91,84,62,14946,2157942729,2160791744,2165421696,2148300452,2151393060,2152789787,2154774244,2147862930,1673,2,16,57736
1353971262,5812,87.5000000000000000,23.2576007843017580,35.1861000061035160,243.1271972656250000,62.5606193542480500,23.2345104217529300,28.2581405639648440,125,122,91,84,60,14961,2161432228,2165088941,2170429741,2148428608,2152689508,2154410432,2156600246,2148057901,1399,2,16,9188
1353971372,5808,85.2200012207031200,23.3838005065917970,35.1982002258300800,243.0917053222656200,58.3306884765625000,23.3652305603027340,28.2069492340087900,114,125,92,85,61,14950,2164519469,2168445522,2173689563,2148551972,2153988141,2155891456,2157997028,2148217828,1421,2,16,34842
1353971449,5810,83.2399978637695300,23.4356002807617200,35.2028999328613300,242.8507995605468800,56.8517303466796900,23.4109592437744140,28.1991291046142580,112,123,91,84,60,14956,2167155721,2171128128,2176109988,2148675693,2155038665,2157068690,2159051492,2148338925,1934,2,16,60042
1353971527,5808,80.5699996948242200,23.5410003662109380,35.1931991577148440,242.0234985351562500,52.1503295898437500,23.5563793182373050,28.1776695251464840,99,119,90,83,60,14956,2171885705,2175891044,2180823104,2148896192,2156944749,2159217883,2161173997,2148571163,2885,2,16,58840
1353971582,5807,78.5400009155273400,24.0730991363525400,35.1712989807128900,241.1235961914062500,37.8921699523925800,23.9980392456054700,28.0405693054199220,88,126,91,85,61,14958,2163978404,2165247360,2167086089,2148476086,2154113225,2155042075,2156057828,2148049408,3546,1,16,51823
1353971902,5805,77.4800033569336000,24.5097999572753900,35.1627998352050800,242.4770965576172000,22.8530502319335940,24.4649696350097660,27.7947597503662100,81,126,93,85,58,14951,2179144237,2182119113,2185404406,2149096027,2161532790,2163892388,2164754258,2148925522,272,2,15,33188
1353972343,5806,75.2099990844726600,25.4193000793457030,35.2631988525390600,235.4443969726562500,-7.6102399826049805,25.4145698547363280,27.7341804504394530,67,121,91,84,57,14970,2187055972,2190759186,2193645805,2149480310,2171700196,2173364982,2171221403,2149499721,1157,2,16,12596
1353972420,5807,73.1299972534179700,25.4419994354248050,35.2654991149902340,235.2223968505859400,-8.3533563613891600,25.4377994537353500,27.7348899841308600,66,121,91,83,55,14973,2188503789,2191911305,2194759350,2149652480,2174649069,2175986194,2172957769,2149668169,619,2,15,60967
1353972498,5804,70.0100021362304700,25.4456005096435550,35.2663002014160160,235.1961975097656200,-8.5431661605834960,25.4437294006347660,27.7339591979980470,64,119,93,84,57,14964,2192482404,2196173760,2199232128,2150111570,2180177865,2181159451,2176719268,2150056585,425,2,16,29952
1353972553,5809,66.8600006103515600,25.4526004791259770,35.2662010192871100,235.2178955078125000,-8.7206840515136720,25.4492797851562500,27.7307796478271500,64,121,94,85,56,14967,2198141266,2202104338,2205262902,2150750198,2186821933,2187675593,2181736137,2150577298,9,2,15,5780
1353972608,5811,63.2299995422363300,25.4533004760742200,35.2667999267578100,235.2176971435547000,-8.7474346160888670,25.4501209259033200,27.7304897308349600,64,119,90,84,55,14964,2197121088,2200212160,2202630665,2151076900,2188583625,2188473645,2181396873,2150619273,66,2,15,57405
1353972663,5810,59.9300003051757800,25.4582996368408200,35.2662010192871100,235.2814941406250000,-8.9814033508300780,25.4574394226074220,27.7246704101562500,60,121,89,85,57,14962,2178712100,2178521453,2177833462,2149758509,2175727954,2173738834,2168143469,2149253906,2995,2,16,38363
1353972718,5806,57.2299995422363300,25.4601993560791000,35.2661018371582000,235.2994995117187500,-8.9588823318481450,25.4567298889160160,27.7240295410156250,59,119,91,84,56,14963,2173602788,2172453083,2171041060,2149436187,2170779209,2168029613,2162896969,2148778112,3245,2,16,20652
1353972773,5807,54.7299995422363300,25.4617004394531250,35.2667999267578100,235.2268981933593800,-8.9845504760742190,25.4575290679931640,27.7271003723144530,59,118,95,86,58,14960,2182009764,2181597814,2180563721,2150449188,2178686729,2175689984,2168653814,2149445833,451,2,16,648
1353972830,5807,52.1100006103515600,25.4708995819091800,35.2671012878418000,235.2760009765625000,-9.2640542984008790,25.4662704467773440,27.7214202880859380,59,119,91,84,54,14957,2233326299,2240036900,2244891200,2157069513,2228992137,2228182052,2211399643,2154228480,497,2,16,52471
1353972885,5810,49.4199981689453100,25.4726009368896500,35.2663993835449200,235.3070983886718800,-9.5189714431762700,25.4742507934570300,27.7169399261474600,57,117,90,84,62,14958,2241873060,2249871570,2255336320,2159494052,2238923145,2237592137,2217862921,2155152402,989,1,16,16276
1353972940,5807,46.7599983215332000,25.4769992828369140,35.2664985656738300,235.4459075927734400,-9.6037473678588870,25.4769001007080080,27.7095508575439450,57,118,93,86,58,14952,2247603794,2256362048,2262676480,2161519021,2246808594,2244865216,2222865664,2155975177,1127,1,16,24216
1353972995,5810,44.3899993896484400,25.4752006530761720,35.2666015625000000,235.4786071777343800,-9.6395463943481450,25.4780197143554700,27.7076492309570300,57,118,92,83,57,14952,2259160941,2268954331,2277183058,2165061952,2259154212,2257280768,2232606125,2157457133,632,2,16,35661
1353973050,5810,42.3400001525878900,25.4888000488281250,35.2672004699707000,235.4550018310547000,-10.1017799377441400,25.4924697875976560,27.7029590606689450,55,118,93,84,60,14953,2263469156,2272810870,2281032457,2167357129,2265722578,2263083108,2236568219,2158252781,85,1,16,27077
1353973105,5807,39.6800003051757800,25.4913997650146500,35.2662010192871100,235.5596923828125000,-10.2161598205566400,25.4960498809814450,27.6968593597412100,56,116,90,83,58,14952,2250846144,2257274377,2262867602,2166023113,2260895524,2257559606,2231587483,2157709924,3442,1,16,34969
1353973162,5806,36.7200012207031250,25.4922008514404300,35.2663993835449200,235.5303039550781200,-10.0528001785278320,25.4909400939941400,27.7001399993896500,56,118,92,84,56,14958,2195991003,2193556077,2190940480,2154887350,2200396525,2193073700,2178939382,2151224265,3571,2,16,56481
1353973217,5804,33.5600013732910160,25.4958992004394530,35.2663993835449200,235.4920043945312500,-10.1413202285766600,25.4937095642089840,27.7007999420166000,55,117,94,85,56,14959,2199901476,2197058313,2194167277,2156770240,2205372672,2196961490,2181268553,2151834614,103,2,16,29713
1353973272,5810,30.4400005340576170,25.4925994873046880,35.2667007446289060,235.6822967529297000,-10.0863399505615230,25.4919891357421880,27.6928195953369140,56,118,92,83,56,14959,2204888969,2201705737,2198616649,2159242779,2211770633,2202205558,2184704448,2152595282,3400,2,16,29080
1353973327,5809,27.3400001525878900,25.4939994812011720,35.2663002014160160,235.9010009765625000,-10.3940696716308600,25.5016193389892580,27.6793403625488280,54,119,91,85,55,14961,2300640009,2309416374,2318583899,2197169545,2321122843,2313367122,2272180461,2167998427,3186,1,16,26280
1353973382,5807,24.0400009155273440,25.5037994384765620,35.2669982910156250,235.9640045166015600,-10.7036695480346680,25.5112991333007800,27.6726207733154300,55,117,90,85,58,14961,2338544667,2352115629,2367297801,2222711844,2358068205,2348844233,2299352841,2175554468,3231,1,15,1373
